NOZ1609 ENTC-EFOU

Flight info

Callsign NOZ1609
Flight time 0h 53m
Altitude 37000
Route MOKAX DCT BURJA
Aircraft A20N/M-SDE2E3FGHIRWXY/LB1

Departure

Time 2026-04-21 18:44
Airport Tromsø Airport (ENTC)

Arrival

Time 2026-04-21 19:37
Airport Oulu Airport (EFOU)
Time Latitude Longitude Altitude Speed Heading
2026-04-21 18:29 69.67979 18.90922 35 ft 0 kts 283°
2026-04-21 18:38 69.67978 18.90930 35 ft 2 kts 283°
2026-04-21 18:38 69.67975 18.90975 34 ft 2 kts 283°
2026-04-21 18:39 69.67971 18.91021 33 ft 2 kts 283°
2026-04-21 18:39 69.67967 18.91066 33 ft 2 kts 283°
2026-04-21 18:39 69.67963 18.91112 34 ft 2 kts 283°
2026-04-21 18:39 69.67960 18.91158 34 ft 2 kts 295°
2026-04-21 18:40 69.67951 18.91198 33 ft 2 kts 318°
2026-04-21 18:40 69.67938 18.91222 33 ft 2 kts 348°
2026-04-21 18:40 69.67930 18.91226 35 ft 0 kts 13°
2026-04-21 18:41 69.67935 18.91229 34 ft 7 kts 13°
2026-04-21 18:41 69.68020 18.91288 32 ft 17 kts 13°
2026-04-21 18:41 69.68154 18.91380 30 ft 22 kts 13°
2026-04-21 18:42 69.68320 18.91474 27 ft 26 kts
2026-04-21 18:42 69.68494 18.91531 27 ft 23 kts 12°
2026-04-21 18:42 69.68676 18.91645 18 ft 21 kts 11°
2026-04-21 18:42 69.68775 18.91755 20 ft 15 kts 57°
2026-04-21 18:43 69.68766 18.91997 20 ft 10 kts 104°
2026-04-21 18:43 69.68723 18.92138 21 ft 10 kts 173°
2026-04-21 18:43 69.68696 18.92130 22 ft 0 kts 187°
2026-04-21 18:43 69.68693 18.92129 22 ft 8 kts 187°
2026-04-21 18:44 69.68340 18.91847 28 ft 95 kts 192°
2026-04-21 18:44 69.67481 18.91343 210 ft 145 kts 198°
2026-04-21 18:44 69.66458 18.90845 1021 ft 150 kts 199°
2026-04-21 18:44 69.65414 18.90232 2009 ft 156 kts 202°
2026-04-21 18:45 69.64323 18.89500 2721 ft 168 kts 204°
2026-04-21 18:45 69.63122 18.88642 3265 ft 190 kts 203°
2026-04-21 18:45 69.61736 18.87633 3651 ft 221 kts 202°
2026-04-21 18:45 69.60144 18.86490 4053 ft 249 kts 201°
2026-04-21 18:46 69.58406 18.85425 4470 ft 265 kts 193°
2026-04-21 18:46 69.56523 18.85650 5436 ft 279 kts 176°
2026-04-21 18:46 69.54596 18.87134 6290 ft 293 kts 170°
2026-04-21 18:46 69.52608 18.88793 7160 ft 301 kts 170°
2026-04-21 18:47 69.50584 18.90478 8086 ft 306 kts 171°
2026-04-21 18:47 69.48516 18.92191 8988 ft 314 kts 168°
2026-04-21 18:47 69.46490 18.94875 9857 ft 330 kts 152°
2026-04-21 18:47 69.44666 18.99096 10504 ft 349 kts 141°
2026-04-21 18:48 69.42806 19.03903 10828 ft 374 kts 140°
2026-04-21 18:48 69.40835 19.09016 11296 ft 391 kts 140°
2026-04-21 18:48 69.38807 19.14246 12113 ft 397 kts 140°
2026-04-21 18:48 69.36740 19.19529 12894 ft 403 kts 140°
2026-04-21 18:49 69.34639 19.24870 13703 ft 409 kts 140°
2026-04-21 18:49 69.32506 19.30265 14397 ft 415 kts 139°
2026-04-21 18:49 69.31073 19.33876 14854 ft 418 kts 139°
2026-04-21 18:49 69.28165 19.41180 15722 ft 426 kts 138°
2026-04-21 18:50 69.25931 19.46772 16394 ft 432 kts 138°
2026-04-21 18:50 69.23671 19.52417 17120 ft 437 kts 137°
2026-04-21 18:50 69.21382 19.58117 17777 ft 442 kts 137°
2026-04-21 18:50 69.19069 19.63864 18463 ft 445 kts 137°
2026-04-21 18:51 69.16732 19.69654 19067 ft 450 kts 136°
2026-04-21 18:51 69.14373 19.75480 19679 ft 454 kts 136°
2026-04-21 18:51 69.11988 19.81351 20247 ft 458 kts 136°
2026-04-21 18:51 69.09583 19.87261 20855 ft 462 kts 136°
2026-04-21 18:52 69.07066 19.92930 21393 ft 469 kts 143°
2026-04-21 18:52 69.04264 19.97705 21926 ft 474 kts 149°
2026-04-21 18:52 69.01380 20.02275 22528 ft 478 kts 149°
2026-04-21 18:52 68.98476 20.06884 23023 ft 483 kts 148°
2026-04-21 18:53 68.95549 20.11545 23523 ft 487 kts 148°
2026-04-21 18:53 68.92605 20.16241 24001 ft 489 kts 148°
2026-04-21 18:53 68.89649 20.20955 24506 ft 491 kts 148°
2026-04-21 18:53 68.86680 20.25679 25006 ft 493 kts 148°
2026-04-21 18:54 68.83692 20.30414 25465 ft 497 kts 148°
2026-04-21 18:54 68.80686 20.35159 25935 ft 499 kts 148°
2026-04-21 18:54 68.77663 20.39910 26378 ft 501 kts 148°
2026-04-21 18:54 68.74621 20.44675 26825 ft 504 kts 148°
2026-04-21 18:55 68.72559 20.47896 27113 ft 506 kts 148°
2026-04-21 18:55 68.68491 20.54229 27668 ft 509 kts 148°
2026-04-21 18:55 68.65396 20.59032 28075 ft 512 kts 148°
2026-04-21 18:55 68.62289 20.63836 28464 ft 514 kts 148°
2026-04-21 18:56 68.59162 20.68658 28821 ft 517 kts 148°
2026-04-21 18:56 68.56019 20.73488 29177 ft 520 kts 148°
2026-04-21 18:56 68.52858 20.78330 29534 ft 522 kts 148°
2026-04-21 18:56 68.49684 20.83175 29893 ft 525 kts 148°
2026-04-21 18:57 68.46489 20.88037 30197 ft 527 kts 148°
2026-04-21 18:57 68.43279 20.92907 30525 ft 529 kts 148°
2026-04-21 18:57 68.40055 20.97781 30835 ft 531 kts 148°
2026-04-21 18:57 68.36818 21.02659 31173 ft 533 kts 148°
2026-04-21 18:58 68.33578 21.07525 31548 ft 533 kts 148°
2026-04-21 18:58 68.30334 21.12381 31966 ft 532 kts 148°
2026-04-21 18:58 68.27096 21.17211 32353 ft 532 kts 148°
2026-04-21 18:58 68.23857 21.22027 32733 ft 532 kts 148°
2026-04-21 18:59 68.20616 21.26832 33101 ft 532 kts 148°
2026-04-21 18:59 68.17377 21.31618 33470 ft 531 kts 149°
2026-04-21 18:59 68.14135 21.36392 33813 ft 531 kts 149°
2026-04-21 18:59 68.10895 21.41148 34126 ft 531 kts 149°
2026-04-21 19:00 68.07655 21.45889 34454 ft 530 kts 149°
2026-04-21 19:00 68.04425 21.50601 34785 ft 529 kts 149°
2026-04-21 19:00 68.01196 21.55296 35090 ft 528 kts 149°
2026-04-21 19:00 67.97978 21.59960 35405 ft 526 kts 149°
2026-04-21 19:01 67.94767 21.64598 35725 ft 524 kts 150°
2026-04-21 19:01 67.91564 21.69209 36041 ft 523 kts 150°
2026-04-21 19:01 67.88370 21.73793 36342 ft 521 kts 150°
2026-04-21 19:01 67.85187 21.78348 36637 ft 519 kts 150°
2026-04-21 19:02 67.82012 21.82876 36937 ft 517 kts 150°
2026-04-21 19:02 67.78855 21.87364 37253 ft 514 kts 150°
2026-04-21 19:02 67.75709 21.91823 37559 ft 512 kts 150°
2026-04-21 19:02 67.72579 21.96246 37867 ft 509 kts 150°
2026-04-21 19:03 67.69457 22.00644 38151 ft 507 kts 150°
2026-04-21 19:03 67.66356 22.04997 38440 ft 505 kts 150°
2026-04-21 19:03 67.63266 22.09324 38689 ft 502 kts 150°
2026-04-21 19:03 67.60187 22.13622 38898 ft 500 kts 150°
2026-04-21 19:04 67.57120 22.17891 38988 ft 499 kts 150°
2026-04-21 19:04 67.51008 22.26360 38990 ft 496 kts 150°
2026-04-21 19:05 67.44919 22.34747 38996 ft 494 kts 150°
2026-04-21 19:05 67.38841 22.43072 38987 ft 493 kts 150°
2026-04-21 19:06 67.32781 22.51323 38986 ft 491 kts 150°
2026-04-21 19:06 67.26732 22.59512 38983 ft 490 kts 150°
2026-04-21 19:07 67.20697 22.67636 38975 ft 489 kts 150°
2026-04-21 19:07 67.14673 22.75698 38972 ft 488 kts 151°
2026-04-21 19:08 67.08653 22.83711 38985 ft 487 kts 151°
2026-04-21 19:08 67.02640 22.91668 38999 ft 486 kts 151°
2026-04-21 19:09 66.96628 22.99579 39009 ft 486 kts 151°
2026-04-21 19:09 66.90619 23.07443 38745 ft 485 kts 151°
2026-04-21 19:09 66.87618 23.11352 38535 ft 482 kts 151°
2026-04-21 19:10 66.84663 23.15189 38427 ft 472 kts 151°
2026-04-21 19:10 66.81779 23.18921 38262 ft 460 kts 151°
2026-04-21 19:10 66.78949 23.22577 37967 ft 452 kts 151°
2026-04-21 19:10 66.76152 23.26185 37702 ft 452 kts 151°
2026-04-21 19:11 66.73339 23.29808 37440 ft 455 kts 151°
2026-04-21 19:11 66.70513 23.33435 37131 ft 456 kts 151°
2026-04-21 19:11 66.67676 23.37068 36513 ft 457 kts 151°
2026-04-21 19:11 66.64864 23.40653 36243 ft 448 kts 151°
2026-04-21 19:12 66.62996 23.43030 35998 ft 444 kts 151°
2026-04-21 19:12 66.59360 23.47649 35384 ft 440 kts 151°
2026-04-21 19:12 66.56638 23.51098 34940 ft 437 kts 151°
2026-04-21 19:12 66.53934 23.54516 34503 ft 434 kts 151°
2026-04-21 19:13 66.51221 23.57938 33754 ft 439 kts 152°
2026-04-21 19:13 66.48469 23.61403 32890 ft 445 kts 152°
2026-04-21 19:13 66.45681 23.64901 32061 ft 451 kts 152°
2026-04-21 19:13 66.42857 23.68436 31242 ft 457 kts 152°
2026-04-21 19:14 66.40013 23.71985 30630 ft 457 kts 153°
2026-04-21 19:14 66.37181 23.75507 30184 ft 452 kts 153°
2026-04-21 19:14 66.34381 23.78982 29644 ft 448 kts 153°
2026-04-21 19:14 66.31600 23.82427 29109 ft 444 kts 153°
2026-04-21 19:15 66.28845 23.85831 28577 ft 440 kts 153°
2026-04-21 19:15 66.26114 23.89198 28052 ft 437 kts 153°
2026-04-21 19:15 66.24316 23.91410 27711 ft 434 kts 153°
2026-04-21 19:15 66.21620 23.94721 27226 ft 431 kts 153°
2026-04-21 19:16 66.18943 23.98001 26731 ft 427 kts 154°
2026-04-21 19:16 66.16290 24.01244 26264 ft 423 kts 154°
2026-04-21 19:16 66.13660 24.04450 25808 ft 420 kts 154°
2026-04-21 19:16 66.11053 24.07621 25356 ft 416 kts 154°
2026-04-21 19:17 66.05902 24.13867 24466 ft 409 kts 155°
2026-04-21 19:17 66.03359 24.16940 24039 ft 405 kts 155°
2026-04-21 19:17 66.00840 24.19976 23613 ft 402 kts 155°
2026-04-21 19:18 65.98306 24.23024 23093 ft 398 kts 155°
2026-04-21 19:18 65.95858 24.25961 22586 ft 396 kts 155°
2026-04-21 19:18 65.93362 24.28948 22081 ft 393 kts 156°
2026-04-21 19:18 65.90917 24.31868 21585 ft 390 kts 156°
2026-04-21 19:19 65.88517 24.34728 21104 ft 387 kts 156°
2026-04-21 19:19 65.86101 24.37601 20635 ft 385 kts 156°
2026-04-21 19:19 65.83702 24.40447 20167 ft 382 kts 156°
2026-04-21 19:19 65.81316 24.43271 19733 ft 380 kts 156°
2026-04-21 19:20 65.78950 24.46068 19294 ft 377 kts 156°
2026-04-21 19:20 65.76594 24.48848 18858 ft 375 kts 156°
2026-04-21 19:20 65.74255 24.51603 18438 ft 372 kts 156°
2026-04-21 19:20 65.71933 24.54330 17990 ft 370 kts 156°
2026-04-21 19:21 65.69624 24.57034 17512 ft 367 kts 156°
2026-04-21 19:21 65.67333 24.59711 17063 ft 365 kts 156°
2026-04-21 19:21 65.65050 24.62374 16596 ft 362 kts 156°
2026-04-21 19:21 65.62778 24.65017 16038 ft 364 kts 156°
2026-04-21 19:22 65.60496 24.67667 15527 ft 363 kts 156°
2026-04-21 19:22 65.58225 24.70301 15087 ft 361 kts 155°
2026-04-21 19:22 65.55969 24.72913 14657 ft 358 kts 155°
2026-04-21 19:22 65.53726 24.75505 14226 ft 356 kts 155°
2026-04-21 19:23 65.51499 24.78077 13799 ft 354 kts 155°
2026-04-21 19:23 65.49285 24.80632 13343 ft 351 kts 155°
2026-04-21 19:23 65.47098 24.83152 12709 ft 347 kts 155°
2026-04-21 19:23 65.44932 24.85644 12055 ft 343 kts 155°
2026-04-21 19:24 65.42786 24.88109 11414 ft 340 kts 155°
2026-04-21 19:24 65.40659 24.90546 10792 ft 337 kts 155°
2026-04-21 19:24 65.38555 24.92952 10277 ft 331 kts 155°
2026-04-21 19:24 65.36568 24.95721 10005 ft 332 kts 143°
2026-04-21 19:25 65.34785 24.99084 9719 ft 320 kts 141°
2026-04-21 19:25 65.33065 25.02431 9428 ft 324 kts 140°
2026-04-21 19:25 65.31298 25.05867 9143 ft 326 kts 141°
2026-04-21 19:25 65.29545 25.09243 8856 ft 320 kts 141°
2026-04-21 19:26 65.27820 25.12539 8576 ft 315 kts 141°
2026-04-21 19:26 65.26122 25.15766 8277 ft 309 kts 141°
2026-04-21 19:26 65.24454 25.18926 7988 ft 303 kts 142°
2026-04-21 19:26 65.22812 25.22031 7681 ft 298 kts 142°
2026-04-21 19:27 65.21185 25.25102 7448 ft 301 kts 142°
2026-04-21 19:27 65.19548 25.28188 7185 ft 298 kts 142°
2026-04-21 19:27 65.17933 25.31228 6927 ft 295 kts 142°
2026-04-21 19:27 65.16315 25.34268 6673 ft 296 kts 142°
2026-04-21 19:28 65.14711 25.37276 6419 ft 292 kts 142°
2026-04-21 19:28 65.13119 25.40261 6153 ft 291 kts 142°
2026-04-21 19:28 65.11535 25.43222 5906 ft 288 kts 142°
2026-04-21 19:28 65.09964 25.46151 5641 ft 286 kts 142°
2026-04-21 19:29 65.08406 25.49053 5396 ft 284 kts 142°
2026-04-21 19:29 65.06854 25.51942 5157 ft 283 kts 142°
2026-04-21 19:29 65.05313 25.54803 4948 ft 278 kts 142°
2026-04-21 19:29 65.03817 25.57580 4820 ft 269 kts 142°
2026-04-21 19:30 65.02343 25.60311 4410 ft 271 kts 142°
2026-04-21 19:30 65.00839 25.63093 4203 ft 282 kts 142°
2026-04-21 19:30 64.99300 25.65950 3961 ft 279 kts 142°
2026-04-21 19:30 64.97788 25.68739 3784 ft 271 kts 143°
2026-04-21 19:31 64.96316 25.71452 3532 ft 267 kts 143°
2026-04-21 19:31 64.94853 25.74129 3266 ft 265 kts 143°
2026-04-21 19:31 64.93376 25.76831 3025 ft 270 kts 142°
2026-04-21 19:31 64.91831 25.79239 2784 ft 264 kts 161°
2026-04-21 19:32 64.90053 25.79849 2609 ft 256 kts 192°
2026-04-21 19:32 64.88441 25.78480 2523 ft 242 kts 215°
2026-04-21 19:32 64.87041 25.76367 2338 ft 236 kts 220°
2026-04-21 19:32 64.85688 25.74119 2313 ft 241 kts 225°
2026-04-21 19:33 64.84980 25.72211 2316 ft 229 kts 246°
2026-04-21 19:33 64.84697 25.67782 2303 ft 193 kts 291°
2026-04-21 19:33 64.85341 25.65071 2330 ft 186 kts 305°
2026-04-21 19:33 64.86028 25.62624 2260 ft 171 kts 304°
2026-04-21 19:34 64.86638 25.60330 2116 ft 161 kts 303°
2026-04-21 19:34 64.87207 25.58167 2003 ft 149 kts 304°
2026-04-21 19:34 64.87717 25.56176 1905 ft 133 kts 303°
2026-04-21 19:34 64.88215 25.54214 1896 ft 139 kts 303°
2026-04-21 19:35 64.88675 25.52403 1870 ft 124 kts 304°
2026-04-21 19:35 64.89534 25.49035 1511 ft 115 kts 304°
2026-04-21 19:35 64.89958 25.47405 1310 ft 119 kts 303°
2026-04-21 19:36 64.90389 25.45751 1047 ft 117 kts 303°
2026-04-21 19:36 64.90819 25.44084 908 ft 122 kts 302°
2026-04-21 19:36 64.91260 25.42360 585 ft 125 kts 300°
2026-04-21 19:36 64.91692 25.40647 376 ft 119 kts 299°
2026-04-21 19:37 64.92114 25.38986 256 ft 119 kts 299°
2026-04-21 19:37 64.92561 25.37275 101 ft 124 kts 293°
2026-04-21 19:37 64.92972 25.35610 48 ft 92 kts 302°
2026-04-21 19:37 64.93144 25.34926 51 ft 15 kts 301°
2026-04-21 19:38 64.93268 25.34454 51 ft 23 kts 304°
2026-04-21 19:38 64.93364 25.34151 54 ft 23 kts 317°
2026-04-21 19:38 64.93440 25.34064 52 ft 15 kts 346°
2026-04-21 19:38 64.93472 25.34072 54 ft 0 kts 18°
2026-04-21 19:39 64.93488 25.34085 54 ft 11 kts 21°
2026-04-21 19:39 64.93510 25.34253 54 ft 14 kts 96°
2026-04-21 19:39 64.93462 25.34473 51 ft 17 kts 120°
2026-04-21 19:39 64.93395 25.34738 52 ft 21 kts 122°
2026-04-21 19:40 64.93311 25.35044 49 ft 21 kts 122°
2026-04-21 19:40 64.93236 25.35334 51 ft 22 kts 121°
2026-04-21 19:40 64.93154 25.35661 50 ft 23 kts 121°
2026-04-21 19:40 64.93064 25.36009 47 ft 26 kts 121°
2026-04-21 19:41 64.92968 25.36392 47 ft 21 kts 120°
2026-04-21 19:41 64.92888 25.36708 46 ft 24 kts 122°
2026-04-21 19:41 64.92823 25.36967 46 ft 17 kts 121°
2026-04-21 19:41 64.92781 25.37135 45 ft 9 kts 120°
2026-04-21 19:42 64.92754 25.37256 45 ft 7 kts 98°
2026-04-21 19:42 64.92787 25.37336 45 ft 7 kts 32°
2026-04-21 19:42 64.92806 25.37362 45 ft 2 kts 30°
2026-04-21 19:42 64.92807 25.37363 45 ft 0 kts 30°